EW9248 Weather Reports


time (UTC)temp
C
wind
direction
speed
KPH
gust
KPH
rain 1hr
cm
rain 24hr
cm
rain mn
cm
humidity
%
barometer
mb
20260510045656 10 0.0 0.0 0.18 1.04 0.18 93 1010.2
20260510044716 10 0.0 1.6 0.15 1.02 0.15 93 1010.8
20260510043616 11 0.0 1.6 0.13 0.99 0.13 93 1011.0
20260510042616 11 0.0 0.0 0.10 0.97 0.10 92 1010.5
20260510041657 11 0.0 0.0 0.05 0.91 0.05 92 1011.1
20260510040615 11 0.0 0.0 0.03 0.89 0.03 92 1011.2
20260510035636 11 270 4.8 12.9 0.00 0.86 0.86 93 1010.8
20260510034637 11 292 8.0 16.1 0.00 0.86 0.86 93 1011.0
20260510033616 11 247 4.8 8.0 0.00 0.86 0.86 95 1010.9
20260510032736 10 292 3.2 9.7 0.00 0.86 0.86 95 1010.5
20260510031636 10 0.0 0.0 0.00 0.86 0.86 94 1009.4
20260510030717 10 0.0 0.0 0.00 0.86 0.86 94 1009.4
20260510025636 10 0.0 0.0 0.00 0.86 0.86 94 1009.5
20260510024636 10 0.0 0.0 0.00 0.86 0.86 94 1009.5
20260510022636 10 0.0 0.0 0.00 0.86 0.86 94 1009.0
20260510021616 10 0.0 0.0 0.00 0.86 0.86 94 1008.7
20260510020637 10 0.0 0.0 0.00 0.86 0.86 93 1008.7
20260510015616 10 0.0 0.0 0.00 0.86 0.86 93 1008.6
20260510014716 10 0.0 0.0 0.00 0.86 0.86 93 1008.7
20260510013757 10 0.0 0.0 0.00 0.86 0.86 93 1008.5
20260510012616 10 0.0 0.0 0.00 0.86 0.86 93 1008.3
20260510011716 10 0.0 0.0 0.00 0.86 0.86 92 1008.4
20260510010656 10 0.0 0.0 0.00 0.86 0.86 92 1008.2
20260510005656 11 247 1.6 4.8 0.00 0.86 0.86 92 1008.3
20260510004615 11 0.0 0.0 0.00 0.86 0.86 91 1007.9
20260510003717 11 0.0 0.0 0.00 0.86 0.86 92 1007.9
20260510002615 11 0.0 0.0 0.00 0.86 0.86 91 1007.6
20260510001655 12 0.0 0.0 0.00 0.86 0.86 91 1007.6
20260510000637 12 0.0 0.0 0.00 0.86 0.86 90 1007.7
20260509235616 12 0.0 1.6 0.00 0.86 0.86 90 1007.8
20260509234656 12 0.0 0.0 0.00 0.86 0.86 89 1007.5
20260509233635 13 0.0 1.6 0.00 0.86 0.86 88 1007.4
20260509232656 13 0.0 1.6 0.00 0.86 0.86 88 1007.4
20260509231615 13 0.0 0.0 0.00 0.86 0.86 87 1007.3
20260509230635 14 202 4.8 8.0 0.00 0.86 0.86 86 1007.3
20260509225715 14 0.0 1.6 0.00 0.86 0.86 86 1007.2
20260509224616 14 0.0 3.2 0.00 0.86 0.86 87 1007.4
20260509223635 13 0.0 1.6 0.00 0.86 0.86 87 1007.5
20260509222636 13 225 1.6 4.8 0.00 0.86 0.86 87 1007.6
20260509221615 14 247 3.2 9.7 0.00 0.86 0.86 87 1007.5
20260509220615 13 270 3.2 6.4 0.00 0.86 0.86 87 1007.4
20260509215635 13 247 4.8 8.0 0.00 0.86 0.86 88 1007.4
20260509214615 13 270 3.2 6.4 0.00 0.86 0.86 88 1007.5
20260509213656 13 225 3.2 6.4 0.00 0.86 0.86 89 1007.5
20260509212720 13 270 1.6 3.2 0.00 0.86 0.86 90 1007.7
20260509211656 13 0.0 1.6 0.00 0.86 0.86 90 1007.8
20260509210635 13 0.0 1.6 0.00 0.86 0.86 90 1007.8
20260509205615 13 202 1.6 3.2 0.00 0.86 0.86 90 1007.9
20260509204615 13 0.0 1.6 0.00 0.86 0.86 91 1008.2
20260509203635 12 0.0 0.0 0.00 0.86 0.86 91 1008.1
20260509202716 12 0.0 1.6 0.00 0.86 0.86 91 1008.2
20260509201615 12 225 3.2 4.8 0.00 0.86 0.86 91 1008.4
20260509200615 12 247 1.6 4.8 0.00 0.86 0.86 91 1008.4
20260509195655 12 247 3.2 6.4 0.00 0.86 0.86 91 1008.6
20260509194616 12 0.0 1.6 0.03 0.86 0.86 91 1008.6
20260509193615 12 0.0 1.6 0.05 0.86 0.86 92 1008.8
20260509192635 12 247 3.2 6.4 0.10 0.86 0.86 92 1008.8
20260509191636 12 270 1.6 6.4 0.13 0.86 0.86 92 1008.8
20260509190636 12 247 3.2 8.0 0.18 0.86 0.86 92 1008.9
20260509185615 12 0.0 1.6 0.18 0.86 0.86 92 1008.9
20260509184635 12 0.0 1.6 0.15 0.84 0.84 91 1009.0
20260509183615 12 247 1.6 4.8 0.13 0.81 0.81 91 1009.0
20260509182716 12 270 3.2 6.4 0.08 0.76 0.76 90 1009.0
20260509181615 12 270 1.6 4.8 0.05 0.74 0.71 90 1008.9
20260509180616 12 247 3.2 8.0 0.00 0.69 0.69 90 1009.1
20260509175655 12 0.0 1.6 0.00 0.69 0.69 90 1009.0
20260509174615 12 225 1.6 4.8 0.00 0.69 0.69 91 1009.0
20260509173615 12 0.0 1.6 0.00 0.69 0.69 91 1008.9
20260509172616 12 0.0 1.6 0.00 0.69 0.69 91 1009.0
20260509171635 12 0.0 0.0 0.00 0.69 0.69 91 1008.9
20260509170615 12 0.0 0.0 0.00 0.69 0.69 92 1008.9
20260509165656 11 225 1.6 4.8 0.00 0.69 0.69 92 1008.8
20260509164655 11 225 3.2 6.4 0.00 0.69 0.69 93 1008.9
20260509163655 11 0.0 1.6 0.00 0.69 0.69 93 1009.0
20260509162615 11 0.0 0.0 0.00 0.69 0.69 93 1009.2
20260509161715 11 225 1.6 3.2 0.00 0.69 0.69 93 1009.2
20260509160715 11 0.0 1.6 0.00 0.69 0.69 93 1009.3
20260509155716 11 0.0 0.0 0.00 0.69 0.69 93 1009.5
20260509154635 11 0.0 0.0 0.00 0.69 0.69 94 1009.3
20260509153615 11 0.0 0.0 0.00 0.69 0.69 94 1009.4
20260509152635 11 0.0 0.0 0.03 0.69 0.69 94 1009.4
20260509151717 11 0.0 0.0 0.03 0.69 0.69 94 1009.5
20260509150617 11 0.0 0.0 0.03 0.69 0.69 95 1009.7
20260509145757 11 0.0 0.0 0.05 0.69 0.69 95 1009.8
20260509144637 11 0.0 0.0 0.05 0.69 0.69 95 1009.9
20260509143617 10 0.0 1.6 0.05 0.69 0.69 95 1010.0
20260509142637 10 0.0 3.2 0.05 0.66 0.66 95 1010.1
20260509141718 10 90 1.6 4.8 0.05 0.66 0.66 95 1010.1
20260509140637 10 225 1.6 3.2 0.08 0.66 0.66 95 1010.2
20260509135617 10 0.0 3.2 0.08 0.64 0.64 95 1010.2
20260509134616 10 202 1.6 3.2 0.08 0.64 0.64 95 1010.3
20260509133616 10 0.0 0.0 0.10 0.64 0.64 95 1010.3
20260509132657 8 0.0 0.0 0.13 0.61 0.61 95 1010.3
20260509131616 8 0.0 0.0 0.15 0.61 0.61 95 1010.4
20260509130619 8 0.0 0.0 0.13 0.58 0.58 95 1010.4
20260509125615 7 0.0 0.0 0.13 0.56 0.56 94 1010.4
20260509124636 8 0.0 0.0 0.15 0.56 0.56 94 1010.5
20260509122637 7 0.0 0.0 0.13 0.48 0.48 94 1010.8
20260509121636 7 0.0 0.0 0.13 0.46 0.46 94 1010.9
20260509120737 7 0.0 0.0 0.15 0.46 0.46 94 1010.8
20260509115617 7 0.0 0.0 0.18 0.43 0.43 94 1011.0
20260509114616 6 0.0 0.0 0.20 0.41 0.41 94 1011.0
20260509113616 6 0.0 0.0 0.23 0.38 0.38 94 1011.0
20260509112657 6 0.0 0.0 0.23 0.33 0.36 94 1011.1
20260509111616 6 0.0 0.0 0.23 0.30 0.33 94 1011.1
20260509110636 6 0.0 0.0 0.23 0.28 0.30 94 1011.0
20260509105636 6 0.0 0.0 0.20 0.25 0.25 94 1011.0
20260509104617 6 0.0 0.0 0.15 0.20 0.20 93 1010.9
20260509103616 6 0.0 0.0 0.10 0.15 0.15 93 1010.6
20260509102716 6 0.0 0.0 0.08 0.13 0.13 93 1010.7
20260509101636 6 0.0 0.0 0.05 0.10 0.10 93 1010.9
20260509100657 6 0.0 0.0 0.03 0.08 0.08 93 1010.9
20260509095636 6 0.0 0.0 0.00 0.05 0.05 93 1010.8
20260509094616 6 0.0 0.0 0.00 0.05 0.05 93 1010.7
20260509093717 6 0.0 0.0 0.00 0.05 0.05 93 1010.8
20260509092636 6 0.0 0.0 0.00 0.05 0.05 93 1010.8
20260509091616 5 0.0 0.0 0.00 0.05 0.05 93 1011.0
20260509090637 5 0.0 0.0 0.00 0.05 0.05 93 1010.9
20260509085617 5 0.0 0.0 0.03 0.05 0.05 93 1011.0
20260509084636 5 0.0 0.0 0.03 0.05 0.05 92 1011.0
20260509083657 5 0.0 0.0 0.03 0.05 0.05 92 1011.1
20260509082616 5 0.0 0.0 0.03 0.05 0.05 92 1011.1
20260509081636 5 0.0 0.0 0.03 0.05 0.05 92 1010.9
20260509080617 5 0.0 0.0 0.03 0.05 0.05 92 1011.1
20260509075636 5 0.0 0.0 0.00 0.03 0.03 92 1011.4
20260509074616 6 0.0 0.0 0.00 0.03 0.03 92 1011.5
20260509073656 5 0.0 0.0 0.00 0.03 0.03 92 1011.4
20260509072636 5 0.0 0.0 0.00 0.03 0.03 91 1011.4
20260509071616 5 0.0 0.0 0.00 0.03 0.03 91 1011.4
20260509070616 5 0.0 0.0 0.03 0.03 0.03 91 1011.4
20260509065617 6 0.0 0.0 0.03 0.03 0.03 91 1011.3
20260509064636 5 0.0 0.0 0.03 0.03 0.03 90 1011.5
20260509063617 6 0.0 0.0 0.03 0.03 0.03 90 1011.6
20260509062616 5 0.0 0.0 0.03 0.03 0.03 90 1011.7
20260509061656 6 0.0 0.0 0.03 0.03 0.03 89 1011.8
20260509060636 6 0.0 0.0 0.00 0.00 0.00 88 1011.7
20260509055616 6 0.0 0.0 0.00 0.00 0.00 87 1011.8
20260509054616 6 0.0 0.0 0.00 0.00 0.00 86 1011.9
20260509053616 6 0.0 0.0 0.00 0.00 0.00 86 1012.0
20260509052657 6 0.0 0.0 0.00 0.00 0.00 86 1012.0
20260509051636 6 0.0 0.0 0.00 0.00 0.00 86 1012.0
20260509050616 6 0.0 0.0 0.00 0.00 0.00 86 1012.0